Theta_e
307 307 308 308 308 308 308 308 308 307 308 308 309 309 309 308 301 303 306 302 305 308 308 313 324 322 320 319 327 317 318 319 321 322 324 325 328 328 328 328 327 327 329 329 332
307 307 307 307 307 307 307 306 305 306 306 304 307 308 308 307 305 306 302 304 302 303 311 311 313 322 316 317 327 324 318 318 318 320 322 321 322 327 330 328 327 325 329 330 330
307 307 308 307 307 307 307 307 307 306 303 302 303 307 308 305 304 302 310 311 310 311 307 315 312 314 318 326 325 329 332 321 320 319 320 324 323 322 323 324 323 325 327 325 326
308 308 307 307 307 307 307 307 307 307 307 305 304 308 308 305 296 307 310 309 302 304 318 314 314 313 312 320 326 332 330 330 328 326 329 329 327 326 322 323 323 323 323 324 325
306 306 305 304 305 306 306 306 303 306 307 308 308 308 307 306 305 302 301 301 305 307 319 315 312 312 312 312 315 319 326 328 327 328 330 332 333 331 328 324 324 323 324 324 323
304 301 300 301 302 304 301 300 300 302 306 308 308 308 307 308 304 303 302 303 303 304 306 314 311 311 311 311 315 314 318 318 320 323 324 325 325 325 325 325 325 325 325 323 322
304 305 304 303 304 301 300 303 305 305 307 309 309 308 307 308 306 306 306 306 305 303 304 306 313 311 310 312 311 313 313 315 315 315 318 322 323 324 324 324 324 324 322 321 321
305 304 302 301 304 305 305 305 307 308 308 310 310 308 309 308 309 308 308 308 307 305 305 306 307 308 311 311 314 315 313 314 316 316 316 319 324 323 323 323 324 323 323 323 321
304 303 301 301 304 305 306 307 307 309 308 309 310 308 310 309 310 308 309 308 307 306 307 308 307 307 310 311 313 314 318 316 316 317 318 318 323 322 321 322 324 324 323 322 323
303 303 300 300 301 304 307 307 306 307 308 310 311 308 306 305 305 306 306 306 307 306 307 306 305 306 306 310 317 317 317 318 318 316 318 318 319 320 320 320 321 320 320 320 320
303 301 300 301 302 306 307 307 305 303 305 305 305 305 305 306 306 306 306 306 306 307 307 305 305 307 309 310 312 312 315 317 317 316 317 318 318 319 318 319 319 320 320 321 321
302 300 300 301 303 307 307 306 306 305 304 305 305 305 305 307 308 308 306 306 306 305 305 306 307 308 308 309 310 310 312 313 315 316 316 317 319 318 318 319 320 320 320 320 320
301 300 300 303 305 307 307 307 307 306 304 305 305 308 306 307 307 307 306 306 306 305 305 306 307 308 308 309 310 310 312 313 314 315 315 314 316 315 316 318 319 319 319 319 319
301 300 301 303 306 307 307 307 307 305 303 306 307 308 307 306 307 308 307 306 306 305 304 304 304 305 306 307 308 308 311 313 314 314 315 314 317 315 315 315 316 317 316 315 317
301 301 302 303 305 306 307 308 307 303 302 306 307 306 306 306 307 309 309 309 308 307 305 304 305 305 305 306 307 309 310 312 313 314 313 314 314 315 314 315 315 316 315 317 317
301 301 303 304 305 307 307 308 305 302 301 307 306 307 307 306 307 308 309 309 310 312 306 305 305 305 304 305 307 308 311 310 311 312 314 314 315 315 314 315 315 316 316 317 316
302 302 303 306 306 308 307 303 303 304 307 308 308 307 307 306 306 308 309 310 312 313 313 310 306 306 306 305 306 307 305 310 313 314 317 314 315 315 315 315 315 315 315 315 315
304 304 304 308 308 308 306 302 303 309 309 307 308 307 305 305 306 308 308 310 311 312 312 313 311 308 312 308 308 304 304 308 315 316 314 314 316 315 314 314 315 315 314 314 319
306 307 307 309 309 308 300 304 305 309 308 307 308 307 305 306 307 307 307 311 312 312 313 313 312 310 310 310 309 310 305 305 306 310 311 314 314 315 315 315 315 314 314 317 326
306 307 309 310 308 306 302 307 307 307 307 307 309 307 307 306 307 306 309 310 311 311 309 310 311 309 310 309 308 308 309 306 305 311 314 314 315 316 316 316 316 315 315 321 332
305 305 308 307 308 301 302 305 307 307 306 309 309 308 307 308 308 307 309 309 309 310 309 309 309 309 310 308 306 309 311 309 306 308 313 315 316 314 315 315 315 315 316 330 334
301 306 309 306 303 300 301 306 307 307 308 309 308 307 307 308 308 308 309 310 308 309 310 310 310 313 310 308 308 309 310 311 309 309 309 312 313 314 313 313 314 324 324 334 334
302 302 307 305 300 299 302 306 307 309 309 309 309 308 307 307 308 309 309 308 307 310 311 310 308 310 307 311 312 311 313 311 314 312 315 311 313 313 313 313 319 328 335 335 336
303 305 300 298 300 304 305 307 309 308 309 309 309 308 308 308 307 308 309 308 308 310 312 310 307 309 308 309 310 312 314 315 315 315 315 314 312 312 312 315 315 334 334 335 337
300 303 302 302 303 304 305 305 308 308 309 308 309 309 310 312 310 309 308 309 309 311 311 309 311 310 310 311 312 313 314 315 315 315 317 316 316 314 315 316 316 330 333 336 337
300 301 302 302 305 306 306 307 308 308 308 309 311 309 308 309 309 311 310 309 310 309 310 311 310 312 311 311 310 316 313 314 315 315 314 315 315 315 316 326 332 332 336 338 337
301 301 303 302 303 304 305 307 308 308 308 309 309 310 309 308 308 308 308 308 309 309 309 310 310 311 310 309 312 315 314 314 315 313 313 315 315 316 318 321 333 334 336 337 337
Wind_Speed
16 16 17 19 20 20 20 20 20 21 21 20 20 20 22 26 30 25 12 19 10 11 20 9 3 6 7 3 4 4 3 5 6 6 4 6 8 5 3 4 5 7 2 8 13
17 18 19 20 21 22 22 22 21 21 22 23 22 22 22 25 25 17 31 27 25 21 14 14 7 7 3 5 4 5 5 10 8 8 2 6 5 12 13 13 12 6 6 5 9
17 18 19 21 21 21 21 22 22 23 23 22 22 22 22 22 6 7 12 16 12 16 22 9 14 6 6 5 6 7 10 14 10 9 5 5 6 5 12 16 11 7 5 9 4
20 20 21 22 23 23 23 22 21 21 22 23 22 20 19 8 7 2 9 19 28 21 14 12 4 6 7 11 7 6 9 16 8 6 5 12 6 13 15 20 12 10 13 8 13
21 21 22 24 24 25 25 24 24 23 21 20 17 13 8 4 12 29 26 24 19 12 9 13 13 6 9 5 5 12 10 7 8 10 12 13 20 21 19 14 16 14 14 13 11
23 24 26 27 30 29 26 25 25 25 23 19 13 8 4 6 14 17 19 22 15 12 7 14 7 6 4 5 15 1 11 13 12 16 11 13 19 17 21 16 14 16 12 13 12
25 26 27 29 30 25 24 23 26 27 21 16 10 5 6 21 18 27 28 30 30 21 5 10 24 6 5 2 7 4 8 10 13 4 7 3 21 25 19 18 20 18 12 12 12
26 27 28 31 29 26 26 25 26 19 12 7 4 4 7 22 18 25 17 23 19 17 20 20 15 5 5 4 5 3 4 13 16 13 6 7 30 8 4 13 20 18 16 15 14
26 28 29 31 29 26 22 23 21 9 11 3 6 4 10 17 10 18 3 16 15 10 14 12 6 6 2 4 3 5 9 13 10 6 8 14 37 13 13 14 18 18 14 13 15
26 28 29 30 27 26 20 20 24 11 8 1 2 1 8 12 22 26 34 21 6 7 4 7 4 4 3 6 15 10 15 3 3 4 10 14 31 17 8 10 15 13 14 14 14
26 29 29 27 22 20 17 14 8 5 9 6 13 7 17 19 26 17 11 11 11 4 5 4 5 15 19 16 10 5 6 2 4 7 13 18 27 21 13 15 20 21 21 21 21
29 28 29 25 22 11 13 3 5 9 8 12 13 13 24 11 6 14 3 4 3 8 5 2 17 8 3 5 11 11 10 8 6 11 5 10 21 16 12 15 17 17 15 15 12
28 27 26 24 12 6 14 8 18 16 3 7 7 6 9 2 4 11 5 3 2 8 8 6 6 9 9 4 6 5 9 9 6 9 16 9 20 12 10 13 18 20 18 13 12
30 29 23 23 3 14 11 16 23 8 2 6 5 4 14 4 4 3 2 3 4 7 7 7 9 8 6 12 13 15 4 7 5 5 9 6 15 20 20 20 13 15 14 10 13
32 28 20 12 10 6 15 22 25 3 3 12 5 9 18 10 10 5 5 2 9 15 4 7 3 4 13 11 6 6 11 9 10 8 4 4 4 28 8 14 20 20 15 18 16
32 26 21 3 7 13 17 28 1 4 4 8 9 14 16 17 8 11 5 7 4 6 12 10 9 6 7 10 8 4 7 9 6 3 6 12 9 27 10 15 9 9 10 12 11
35 24 10 6 5 16 21 5 4 5 5 8 10 17 18 10 12 9 10 4 2 4 5 1 15 16 9 7 5 4 4 2 2 4 13 12 13 23 5 4 6 7 10 11 10
36 11 3 9 7 13 9 5 7 2 5 10 8 15 5 10 8 11 11 5 9 2 3 0 5 8 4 8 6 6 9 4 6 7 6 13 13 9 10 14 16 13 14 9 8
24 8 2 0 4 4 5 5 4 3 6 10 11 4 5 13 3 7 5 3 2 4 1 1 6 3 4 3 4 2 4 8 4 4 2 5 8 10 11 19 8 12 7 11 9
12 10 5 2 2 4 5 3 3 3 12 9 3 2 4 11 6 7 3 1 6 3 2 3 3 4 5 2 5 6 3 3 1 4 5 6 7 11 2 13 5 8 9 8 6
6 4 6 0 1 5 2 5 6 8 9 5 5 5 5 6 8 4 2 6 1 5 6 3 1 4 3 3 4 2 3 3 4 5 4 3 7 6 13 5 9 14 10 9 9
7 2 12 5 4 1 1 5 8 6 9 6 4 4 5 6 4 4 4 4 6 1 1 2 3 4 8 6 5 4 3 2 3 9 4 3 7 11 3 7 8 17 5 9 10
4 3 4 3 2 3 5 5 4 7 9 3 5 5 2 4 4 5 5 3 8 2 2 2 2 4 8 3 3 1 4 4 1 2 6 5 6 5 8 9 9 8 3 10 13
2 4 4 4 1 1 4 4 4 7 10 7 7 7 5 5 6 6 9 5 7 3 4 5 4 5 5 6 3 6 11 4 4 3 5 19 11 25 14 17 14 3 5 1 13
3 2 1 4 4 8 4 5 7 10 3 4 4 5 15 6 9 7 6 4 4 5 2 4 5 5 9 12 14 13 17 16 11 8 5 9 10 14 13 17 14 9 9 8 11
2 3 4 5 9 6 5 4 11 11 4 8 6 15 14 9 12 21 16 6 7 4 5 5 3 3 11 14 11 17 20 19 16 14 10 10 24 9 14 9 8 12 15 15 11
4 4 2 5 4 4 3 7 13 13 9 10 14 16 13 15 12 21 20 16 12 7 7 6 3 3 7 9 12 10 16 19 11 8 13 10 13 10 11 11 8 3 14 17 15
Wind_Direction
357 352 347 343 339 336 333 329 330 334 333 333 332 331 329 327 320 318 255 253 262 283 264 259 189 213 208 247 198 142 115 224 238 156 230 308 0 271 257 293 349 348 129 218 207
352 347 344 340 338 335 333 333 334 332 331 331 330 332 333 329 319 272 287 284 276 270 273 230 227 175 184 209 213 166 179 221 203 194 184 332 332 308 329 317 293 300 263 252 243
351 345 341 338 334 331 329 328 327 326 326 325 325 329 331 337 304 252 81 37 349 321 246 260 233 182 204 188 203 202 216 227 244 223 194 259 285 279 284 274 235 261 270 295 200
350 346 342 338 335 332 327 323 317 314 315 316 321 326 332 360 297 271 252 315 324 335 223 224 213 194 194 205 196 243 211 224 256 230 232 242 277 250 233 256 273 276 274 287 284
348 345 343 339 335 329 324 320 318 313 308 305 304 315 349 13 250 288 308 320 337 352 215 213 215 178 197 209 205 240 237 231 250 265 253 266 259 261 258 251 270 270 275 267 255
350 350 345 343 338 333 332 328 323 319 307 298 293 295 257 274 266 291 307 309 311 337 330 215 220 206 233 215 207 214 223 247 246 253 261 255 264 267 263 261 254 264 252 255 248
343 340 338 338 333 337 342 343 337 329 313 297 283 261 266 248 285 291 293 291 286 274 278 273 244 228 166 304 255 270 291 284 241 199 244 280 268 252 260 271 269 267 255 252 243
337 339 340 340 335 335 337 343 344 333 331 306 215 210 252 283 317 296 303 299 292 253 233 258 262 262 173 308 321 232 187 247 260 232 222 163 258 238 267 241 261 266 266 272 269
339 340 340 338 333 336 343 350 350 4 24 25 145 170 266 311 281 324 279 314 292 258 230 240 168 183 159 169 332 237 238 231 263 193 204 193 258 257 254 260 261 262 263 266 272
340 340 341 340 340 341 339 346 347 304 11 355 170 289 277 307 291 304 301 298 281 294 202 196 176 161 174 165 212 216 227 261 205 212 218 233 256 254 246 260 262 265 264 266 272
340 342 341 339 340 338 335 344 4 340 325 243 268 254 269 275 292 290 289 317 302 223 203 199 161 209 206 218 253 340 307 326 336 215 215 230 254 256 253 254 257 260 263 264 265
345 347 341 338 339 343 347 355 301 293 302 299 259 258 257 264 298 295 78 169 5 314 326 234 229 219 169 175 230 259 275 279 277 270 259 276 270 278 260 254 254 251 248 252 264
348 347 344 336 335 348 333 293 342 338 305 296 255 266 302 90 278 280 157 114 239 279 267 227 254 218 230 246 264 244 232 250 248 307 300 303 288 274 252 252 252 257 255 254 242
348 345 345 337 340 331 307 334 335 326 29 282 327 312 336 288 297 32 39 169 258 229 239 227 243 258 255 235 231 254 249 257 254 222 258 4 290 276 266 257 241 249 253 242 245
348 344 338 334 297 305 313 327 333 93 345 319 326 326 328 330 315 358 314 147 248 246 224 244 267 236 231 239 225 257 231 233 224 252 258 248 291 273 211 252 246 246 245 250 251
343 337 333 297 278 304 316 325 36 51 289 334 347 330 335 324 326 336 350 333 282 276 223 236 255 226 230 245 222 225 213 220 220 197 252 222 208 273 240 243 244 230 237 245 247
337 330 306 261 257 311 317 7 39 90 338 342 323 319 316 323 329 346 330 272 271 28 32 212 240 254 223 239 243 174 92 182 172 187 234 188 208 247 274 254 246 261 255 257 266
337 339 247 259 323 314 348 48 63 317 279 297 315 316 309 7 327 349 332 347 42 227 238 181 304 248 221 193 206 184 165 185 179 184 230 233 233 249 231 239 259 261 257 247 250
349 0 336 36 296 323 59 47 211 270 277 309 322 323 316 332 297 324 306 305 346 16 134 22 233 330 110 122 127 318 171 209 3 216 213 243 281 287 269 268 258 259 270 246 211
345 338 320 129 203 51 68 279 244 249 306 310 237 207 290 324 331 323 301 311 335 32 219 298 331 332 357 344 216 167 222 124 80 226 237 260 256 235 255 258 324 283 243 236 151
9 29 12 301 286 47 123 237 284 300 328 329 280 261 285 311 306 278 303 301 10 328 329 11 116 291 358 230 205 163 240 221 187 210 213 282 254 211 211 294 293 303 277 185 154
353 48 347 341 37 46 353 293 299 300 323 309 270 258 275 300 282 276 280 248 320 119 359 297 162 248 234 244 297 317 207 157 185 228 238 238 263 283 327 312 327 311 288 140 136
344 279 348 31 63 315 300 281 269 330 321 299 281 280 269 265 296 260 254 239 296 232 159 315 19 339 330 13 32 234 289 188 259 263 237 225 257 354 358 328 339 316 108 138 133
6 352 327 43 116 125 309 275 296 314 302 328 275 285 341 278 242 278 287 309 341 229 213 163 181 192 196 263 314 296 283 266 194 251 243 244 309 280 310 327 334 79 84 238 140
30 316 204 310 332 314 270 270 330 335 277 281 297 289 311 278 285 250 232 277 251 263 134 138 224 210 238 261 275 265 261 265 231 234 252 314 281 281 311 292 288 231 147 153 156
31 14 344 285 273 275 300 290 312 322 286 292 261 299 302 275 253 285 287 218 240 222 183 184 271 253 266 260 257 292 249 250 242 242 245 262 275 271 267 304 293 198 163 160 178
355 317 262 269 293 314 268 313 311 314 293 279 299 306 301 291 306 290 276 258 238 240 209 186 214 271 269 299 336 287 222 229 229 218 203 217 261 283 292 319 335 333 173 161 175